• In Netherlands
  • List of Countries
  • For 7 days
  • Water Temperature
  • Satellite Maps
  • Weather Map
  • Weather Widgets
  • user-avatar
    Login

    Hourly Weather Sylhet

    Today, 25 April, Tuesday

    Time Temperature Precipitation Wind Pressure Humidity
    00:00 +26°C° 0 mm 2 mps 754 mmHg 95%
    01:00 +26°C° 1.4 mm 2 mps 753 mmHg 95%
    02:00 +26°C° 1.4 mm 2 mps 753 mmHg 95%
    03:00 +26°C° 1.4 mm 2 mps 753 mmHg 96%
    04:00 +26°C° 1.2 mm 2 mps 753 mmHg 96%
    05:00 +26°C° 1.2 mm 2 mps 753 mmHg 96%
    06:00 +26°C° 0 mm 2 mps 753 mmHg 95%
    07:00 +26°C° 0.6 mm 3 mps 753 mmHg 95%
    08:00 +26°C° 0.6 mm 3 mps 754 mmHg 94%
    09:00 +27°C° 0.6 mm 3 mps 754 mmHg 94%
    10:00 +28°C° 1.2 mm 3 mps 754 mmHg 92%
    11:00 +28°C° 1.2 mm 3 mps 754 mmHg 90%
    12:00 +29°C° 0 mm 4 mps 754 mmHg 89%
    13:00 +29°C° 1.9 mm 4 mps 753 mmHg 87%
    14:00 +30°C° 1.9 mm 4 mps 753 mmHg 86%
    15:00 +30°C° 1.9 mm 4 mps 752 mmHg 84%
    16:00 +30°C° 2.8 mm 4 mps 752 mmHg 86%
    17:00 +29°C° 2.8 mm 4 mps 752 mmHg 88%
    18:00 +29°C° 2.8 mm 4 mps 752 mmHg 90%
    19:00 +28°C° 2.7 mm 4 mps 753 mmHg 91%
    20:00 +28°C° 2.7 mm 4 mps 753 mmHg 92%
    21:00 +27°C° 2.7 mm 4 mps 753 mmHg 94%
    22:00 +27°C° 1.9 mm 3 mps 753 mmHg 94%
    23:00 +27°C° 1.9 mm 3 mps 753 mmHg 95%

    Tomorrow, 26 April, Wednesday

    Time Temperature Precipitation Wind Pressure Humidity
    00:00 +27°C° 1.9 mm 2 mps 753 mmHg 95%
    01:00 +27°C° 0.7 mm 2 mps 753 mmHg 95%
    02:00 +26°C° 0.7 mm 2 mps 753 mmHg 96%
    03:00 +26°C° 0.7 mm 2 mps 753 mmHg 96%
    04:00 +26°C° 0.2 mm 2 mps 753 mmHg 96%
    05:00 +26°C° 0.2 mm 2 mps 753 mmHg 96%
    06:00 +26°C° 0.2 mm 3 mps 754 mmHg 96%
    07:00 +27°C° 0.2 mm 3 mps 754 mmHg 95%
    08:00 +27°C° 0.2 mm 3 mps 755 mmHg 93%
    09:00 +27°C° 0.2 mm 3 mps 755 mmHg 92%
    10:00 +28°C° 0.1 mm 3 mps 755 mmHg 90%
    11:00 +29°C° 0.1 mm 3 mps 755 mmHg 88%
    12:00 +29°C° 0.1 mm 3 mps 755 mmHg 86%
    13:00 +30°C° 0.1 mm 3 mps 755 mmHg 82%
    14:00 +31°C° 0.1 mm 3 mps 754 mmHg 79%
    15:00 +33°C° 0.1 mm 4 mps 753 mmHg 75%
    16:00 +31°C° 0.3 mm 3 mps 753 mmHg 79%
    17:00 +31°C° 0.3 mm 3 mps 753 mmHg 82%
    18:00 +30°C° 0.3 mm 2 mps 753 mmHg 86%
    19:00 +29°C° 0 mm 2 mps 754 mmHg 88%
    20:00 +28°C° 0 mm 2 mps 755 mmHg 90%
    21:00 +27°C° 0 mm 2 mps 755 mmHg 92%
    22:00 +27°C° 0.1 mm 2 mps 755 mmHg 93%
    23:00 +26°C° 0.1 mm 2 mps 755 mmHg 94%

    Day after tomorrow, 27 April, Thursday

    Time Temperature Precipitation Wind Pressure Humidity
    00:00 +26°C° 0.1 mm 2 mps 755 mmHg 96%
    01:00 +26°C° 0.2 mm 2 mps 755 mmHg 96%
    02:00 +26°C° 0.2 mm 2 mps 754 mmHg 95%
    03:00 +26°C° 0.2 mm 2 mps 754 mmHg 95%
    04:00 +26°C° 0.1 mm 2 mps 754 mmHg 95%
    05:00 +26°C° 0.1 mm 2 mps 755 mmHg 95%
    06:00 +26°C° 0.1 mm 2 mps 755 mmHg 95%
    07:00 +26°C° 0.1 mm 2 mps 756 mmHg 94%
    08:00 +27°C° 0.1 mm 3 mps 756 mmHg 92%
    09:00 +28°C° 0.1 mm 3 mps 757 mmHg 91%
    10:00 +29°C° 0.1 mm 3 mps 756 mmHg 85%
    11:00 +31°C° 0.1 mm 2 mps 756 mmHg 79%
    12:00 +34°C° 0.1 mm 2 mps 756 mmHg 73%
    13:00 +34°C° 0.1 mm 2 mps 755 mmHg 71%
    14:00 +35°C° 0.1 mm 2 mps 754 mmHg 69%
    15:00 +35°C° 0.1 mm 2 mps 754 mmHg 67%
    16:00 +34°C° 0.2 mm 2 mps 753 mmHg 72%
    17:00 +32°C° 0.2 mm 2 mps 753 mmHg 77%
    18:00 +31°C° 0.2 mm 2 mps 753 mmHg 82%
    19:00 +29°C° 3.1 mm 3 mps 754 mmHg 85%
    20:00 +28°C° 3.1 mm 3 mps 755 mmHg 89%
    21:00 +27°C° 3.1 mm 3 mps 756 mmHg 92%
    22:00 +27°C° 0 mm 2 mps 756 mmHg 93%
    23:00 +26°C° 0 mm 2 mps 756 mmHg 93%

    28 April, Friday

    Time Temperature Precipitation Wind Pressure Humidity
    00:00 +26°C° 0 mm 2 mps 756 mmHg 94%
    01:00 +25°C° 0.1 mm 2 mps 756 mmHg 94%
    02:00 +25°C° 0.1 mm 2 mps 755 mmHg 94%
    03:00 +25°C° 0.1 mm 2 mps 755 mmHg 95%
    04:00 +25°C° 0.3 mm 2 mps 755 mmHg 94%
    05:00 +25°C° 0.3 mm 2 mps 756 mmHg 94%
    06:00 +25°C° 0.3 mm 2 mps 756 mmHg 93%
    07:00 +26°C° 0 mm 2 mps 756 mmHg 89%
    08:00 +28°C° 0 mm 2 mps 757 mmHg 85%
    09:00 +29°C° 0 mm 2 mps 757 mmHg 81%
    10:00 +30°C° 0 mm 2 mps 757 mmHg 79%
    11:00 +31°C° 0 mm 2 mps 756 mmHg 76%
    12:00 +32°C° 0 mm 1 mps 756 mmHg 73%
    13:00 +32°C° 0.1 mm 1 mps 755 mmHg 71%
    14:00 +33°C° 0.1 mm 1 mps 754 mmHg 68%
    15:00 +33°C° 0.1 mm 1 mps 754 mmHg 66%
    16:00 +32°C° 0 mm 1 mps 753 mmHg 71%
    17:00 +31°C° 0 mm 2 mps 753 mmHg 75%
    18:00 +31°C° 0 mm 2 mps 752 mmHg 80%
    19:00 +29°C° 2.1 mm 2 mps 754 mmHg 84%
    20:00 +28°C° 2.1 mm 3 mps 755 mmHg 87%
    21:00 +27°C° 2.1 mm 3 mps 756 mmHg 91%
    22:00 +27°C° 0.2 mm 3 mps 756 mmHg 90%
    23:00 +26°C° 0.2 mm 4 mps 756 mmHg 89%

    29 April, Saturday

    Time Temperature Precipitation Wind Pressure Humidity
    00:00 +26°C° 0.2 mm 4 mps 755 mmHg 89%
    01:00 +25°C° 0 mm 3 mps 755 mmHg 91%
    02:00 +25°C° 0 mm 2 mps 755 mmHg 93%
    03:00 +24°C° 0 mm 1 mps 754 mmHg 95%
    04:00 +25°C° 0 mm 2 mps 755 mmHg 94%
    05:00 +25°C° 0 mm 2 mps 755 mmHg 93%
    06:00 +25°C° 0 mm 2 mps 756 mmHg 92%
    07:00 +26°C° 0.1 mm 2 mps 756 mmHg 89%
    08:00 +27°C° 0.1 mm 2 mps 757 mmHg 86%
    09:00 +28°C° 0.1 mm 2 mps 758 mmHg 82%
    10:00 +29°C° 0.1 mm 2 mps 757 mmHg 81%
    11:00 +30°C° 0.1 mm 2 mps 757 mmHg 79%
    12:00 +30°C° 0.1 mm 2 mps 756 mmHg 77%
    13:00 +31°C° 0.1 mm 2 mps 756 mmHg 74%
    14:00 +32°C° 0.1 mm 2 mps 755 mmHg 71%
    15:00 +34°C° 0.1 mm 2 mps 754 mmHg 68%
    16:00 +32°C° 0.1 mm 2 mps 754 mmHg 72%
    17:00 +31°C° 0.1 mm 2 mps 754 mmHg 77%
    18:00 +30°C° 0.1 mm 2 mps 754 mmHg 82%
    19:00 +29°C° 0.9 mm 2 mps 755 mmHg 85%
    20:00 +28°C° 0.9 mm 1 mps 755 mmHg 88%
    21:00 +27°C° 0.9 mm 1 mps 756 mmHg 92%
    22:00 +27°C° 1.2 mm 2 mps 756 mmHg 93%
    23:00 +26°C° 1.2 mm 2 mps 756 mmHg 93%

    30 April, Sunday

    Time Temperature Precipitation Wind Pressure Humidity
    00:00 +26°C° 1.2 mm 2 mps 755 mmHg 94%
    01:00 +26°C° 0.2 mm 2 mps 755 mmHg 95%
    02:00 +25°C° 0.2 mm 2 mps 755 mmHg 95%
    03:00 +25°C° 0.2 mm 2 mps 755 mmHg 96%
    04:00 +25°C° 0.1 mm 2 mps 755 mmHg 96%
    05:00 +25°C° 0.1 mm 2 mps 756 mmHg 95%
    06:00 +26°C° 0.1 mm 2 mps 756 mmHg 95%
    07:00 +26°C° 0.2 mm 2 mps 757 mmHg 93%
    08:00 +27°C° 0.2 mm 2 mps 757 mmHg 91%
    09:00 +28°C° 0.2 mm 2 mps 758 mmHg 90%
    10:00 +29°C° 0.5 mm 2 mps 757 mmHg 85%
    11:00 +30°C° 0.5 mm 2 mps 757 mmHg 81%
    12:00 +31°C° 0.5 mm 2 mps 756 mmHg 77%
    13:00 +31°C° 0.8 mm 2 mps 756 mmHg 75%
    14:00 +32°C° 0.8 mm 2 mps 755 mmHg 73%
    15:00 +32°C° 0.8 mm 2 mps 754 mmHg 72%
    16:00 +31°C° 1.1 mm 2 mps 754 mmHg 76%
    17:00 +30°C° 1.1 mm 2 mps 754 mmHg 81%
    18:00 +29°C° 1.1 mm 2 mps 754 mmHg 85%
    19:00 +28°C° 1.1 mm 2 mps 754 mmHg 88%
    20:00 +27°C° 1.1 mm 2 mps 755 mmHg 90%
    21:00 +27°C° 1.1 mm 2 mps 755 mmHg 93%
    22:00 +26°C° 2.6 mm 2 mps 756 mmHg 94%
    23:00 +26°C° 2.6 mm 2 mps 756 mmHg 95%
    Show more